This demonstration page uses our WeatherBlox Daily Observations layout. Learn more.

Left ArrowRight Arrow

40.92945, -100.16068

Hourly Observations for February 21, 2015

Temp ( °F °C ) Dew Point ( °F °C ) Humidity (%) Winds ( mph kmh ) Pressure ( in mb ) Visibility ( mi km ) Precip ( " mm )
12:15 am 00:15 Cloudy 37 3 31 -0.5 78 78 NW 8 13 29.97 1015 10 16 N/A
12:35 am 00:35 Cloudy 35 1.8 30 -1 82 82 WNW 9 15 30.00 1016 10 16 N/A
12:55 am 00:55 Partly Cloudy 33 0.7 29 -1.5 85 85 WNW 9 15 30.00 1016 10 16 N/A
1:15 am 01:15 Partly Cloudy 34 1 31 -0.7 89 89 WNW 8 13 30.00 1016 10 16 N/A
1:35 am 01:35 Partly Cloudy 32 0.1 29 -1.6 88 88 WNW 7 11 30.00 1016 10 16 N/A
1:55 am 01:55 Clear 32 -0.2 29 -1.8 89 89 W 6 9 30.00 1016 10 16 N/A
2:15 am 02:15 Mostly Cloudy 32 -0.1 29 -1.5 90 90 W 9 15 30.00 1016 10 16 N/A
2:35 am 02:35 Partly Cloudy 31 -0.6 28 -2 90 90 W 10 17 30.03 1017 10 16 N/A
2:55 am 02:55 Clear 30 -1.2 28 -2.4 92 92 W 8 13 30.03 1017 10 16 N/A
3:15 am 03:15 Clear 30 -1.2 28 -2.3 92 92 W 9 15 30.03 1017 10 16 N/A
3:35 am 03:35 Clear 28 -2.4 26 -3.6 92 92 W 6 9 30.03 1017 10 16 N/A
3:55 am 03:55 Partly Cloudy 29 -1.7 27 -2.6 94 94 WNW 8 13 30.03 1017 10 16 N/A
4:15 am 04:15 Mostly Cloudy 32 0 30 -0.9 94 94 NW 8 13 30.00 1016 10 16 N/A
4:35 am 04:35 Clear 30 -1.1 28 -2.2 92 92 WNW 8 13 30.03 1017 10 16 N/A
4:55 am 04:55 Clear 29 -1.9 27 -2.8 94 94 NW 8 13 30.03 1017 10 16 N/A
5:15 am 05:15 Clear 27 -2.7 26 -3.5 94 94 WNW 9 15 30.03 1017 10 16 N/A
5:35 am 05:35 Partly Cloudy 27 -2.6 26 -3.3 95 95 WNW 7 11 30.09 1019 10 16 N/A
5:55 am 05:55 Cloudy 30 -1.2 29 -1.9 95 95 W 7 11 30.06 1018 10 16 N/A
6:15 am 06:15 Cloudy 30 -1 29 -1.7 95 95 WNW 6 9 30.06 1018 10 16 N/A
6:35 am 06:35 Cloudy 31 -0.7 29 -1.5 94 94 WNW 7 11 30.06 1018 10 16 N/A
6:55 am 06:55 Cloudy 32 -0.2 30 -1 94 94 NW 8 13 30.06 1018 10 16 N/A
7:15 am 07:15 Cloudy 33 0.8 32 0 94 94 NW 10 17 30.06 1018 10 16 N/A
7:35 am 07:35 Cloudy 33 0.8 32 0 94 94 WNW 7 11 30.06 1018 10 16 N/A
7:55 am 07:55 Cloudy 33 0.8 32 0 94 94 NW 8 13 30.06 1018 10 16 N/A
8:15 am 08:15 Cloudy 34 1.1 32 0 92 92 NW 10 17 30.09 1019 10 16 N/A
8:35 am 08:35 Cloudy 34 1.3 32 0 91 91 NW 10 17 30.09 1019 10 16 N/A
8:55 am 08:55 Cloudy 35 1.5 32 0 90 90 NW 12 19 30.09 1019 10 16 N/A
9:15 am 09:15 Cloudy 35 1.7 32 0 89 89 N 9 15 30.09 1019 10 16 N/A
9:35 am 09:35 Cloudy 37 2.5 32 0.1 84 84 NNW 12 19 30.09 1019 10 16 N/A
9:55 am 09:55 Partly Cloudy 39 4 33 0.3 77 77 N 15 24 30.06 1018 10 16 N/A
10:15 am 10:15 Mostly Cloudy 41 5 32 -0.1 70 70 N 13 20 30.06 1018 10 16 N/A
10:35 am 10:35 Cloudy 42 5.3 30 -0.9 65 65 N 17 28 30.09 1019 10 16 N/A
10:55 am 10:55 Cloudy 41 5.2 30 -1.2 64 64 N 16 26 30.09 1019 10 16 N/A
11:15 am 11:15 Cloudy 41 4.9 29 -1.4 64 64 N 16 26 30.09 1019 10 16 N/A
11:35 am 11:35 Cloudy 40 4.2 30 -1 69 69 N 14 22 30.09 1019 10 16 N/A
11:55 am 11:55 Cloudy 39 4 30 -1.2 69 69 N 10 17 30.09 1019 10 16 N/A
12:15 pm 12:15 Cloudy 39 3.9 29 -1.5 68 68 NNE 13 20 30.09 1019 10 16 N/A
12:35 pm 12:35 Cloudy 38 3.2 29 -1.7 71 71 N 14 22 30.12 1020 10 16 N/A
12:55 pm 12:55 Cloudy 37 3 29 -1.8 71 71 N 16 26 30.12 1020 10 16 N/A
1:15 pm 13:15 Cloudy 36 2.2 29 -1.5 77 77 NNE 23 37 30.12 1020 10 16 N/A
1:35 pm 13:35 Cloudy 35 1.4 28 -2.2 77 77 NNE 20 31 30.12 1020 10 16 N/A
1:55 pm 13:55 Cloudy 34 0.9 27 -3 75 75 NNE 20 31 30.18 1022 10 16 N/A
2:15 pm 14:15 Cloudy 33 0.6 25 -4 72 72 NNE 21 33 30.18 1022 10 16 N/A
2:35 pm 14:35 Cloudy 32 0 24 -4.2 74 74 NNE 20 31 30.18 1022 10 16 N/A
2:55 pm 14:55 Cloudy 32 0 23 -5.2 68 68 NNE 17 28 30.18 1022 10 16 N/A
3:15 pm 15:15 Cloudy 32 0.1 21 -5.9 64 64 N 20 31 30.21 1023 10 16 N/A
3:35 pm 15:35 Cloudy 32 0.2 20 -6.6 61 61 NNE 16 26 30.21 1023 10 16 N/A
3:55 pm 15:55 Cloudy 33 0.5 19 -7 58 58 N 16 26 30.21 1023 10 16 N/A
4:15 pm 16:15 Cloudy 33 0.5 20 -6.9 58 58 NNE 13 20 30.21 1023 7 11 N/A
4:35 pm 16:35 Cloudy 32 0.2 19 -7.4 57 57 N 18 30 30.21 1023 10 16 N/A
4:55 pm 16:55 Cloudy 32 0.2 18 -7.8 55 55 N 17 28 30.24 1024 10 16 N/A
5:15 pm 17:15 Cloudy 32 0 18 -8 55 55 N 16 26 30.24 1024 10 16 N/A
5:35 pm 17:35 Cloudy 32 -0.1 18 -7.7 57 57 N 15 24 30.24 1024 10 16 N/A
5:55 pm 17:55 Cloudy 31 -0.6 17 -8.2 57 57 N 17 28 30.30 1026 10 16 N/A
6:15 pm 18:15 Cloudy 30 -1.2 18 -7.9 61 61 NNE 15 24 30.30 1026 10 16 N/A
6:35 pm 18:35 Cloudy 29 -1.7 16 -8.8 59 59 NNE 17 28 30.30 1026 10 16 N/A
6:55 pm 18:55 Cloudy 28 -2 17 -8.6 61 61 NNE 13 20 30.33 1027 10 16 N/A
7:15 pm 19:15 Mostly Cloudy 28 -2.1 17 -8.6 61 61 NNE 14 22 30.33 1027 10 16 N/A
7:35 pm 19:35 Mostly Cloudy 28 -2.1 15 -9.7 56 56 NNE 14 22 30.36 1028 10 16 N/A
7:55 pm 19:55 Cloudy 28 -2.2 15 -9.4 58 58 NNE 14 22 30.36 1028 10 16 N/A
8:15 pm 20:15 Cloudy 28 -2.5 14 -9.8 58 58 N 16 26 30.36 1028 10 16 N/A
8:35 pm 20:35 Cloudy 27 -3 18 -8 69 69 NNE 15 24 30.42 1030 10 16 N/A
8:55 pm 20:55 Cloudy 26 -3.3 18 -7.7 72 72 NE 16 26 30.42 1030 10 16 N/A
9:15 pm 21:15 Cloudy 25 -3.8 17 -8.1 72 72 NE 15 24 30.42 1030 10 16 N/A
9:35 pm 21:35 Cloudy 25 -4 18 -8 74 74 NNE 14 22 30.45 1031 10 16 N/A
9:55 pm 21:55 Cloudy with Light Snow 24 -4.5 18 -8 77 77 NNE 13 20 30.45 1031 10 16 N/A
10:15 pm 22:15 Cloudy with Light Snow 24 -4.5 17 -8.5 74 74 NNE 14 22 30.48 1032 7 11 N/A
10:35 pm 22:35 Cloudy with Light Snow 23 -5 17 -8.3 78 78 NNE 14 22 30.48 1032 5 8 N/A
10:55 pm 22:55 Cloudy with Light Snow 22 -5.5 17 -8.6 79 79 NE 13 20 30.48 1032 5 8 N/A
11:15 pm 23:15 Cloudy with Light Snow 22 -5.6 16 -8.8 78 78 NNE 16 26 30.53 1034 5 8 N/A
11:35 pm 23:35 Cloudy 21 -6 15 -9.2 78 78 NNE 14 22 30.53 1034 10 16 N/A
11:55 pm 23:55 Cloudy with Light Snow 21 -6.2 16 -9 81 81 NNE 15 24 30.56 1035 7 11 N/A

Powered by AerisWeather